TimeEDT,TemperatureF,Dew PointF,Humidity,Sea Level PressureIn,VisibilityMPH,Wind Direction,Wind SpeedMPH,Gust SpeedMPH,PrecipitationIn,Events,Conditions,WindDirDegrees,DateUTC
12:53 AM,68.0,64.0,87,30.02,8.0,SSW,4.6,-,N/A,,Clear,210,2013-08-22 04:53:00
1:53 AM,68.0,64.9,90,30.02,7.0,SSW,3.5,-,N/A,,Partly Cloudy,210,2013-08-22 05:53:00
2:53 AM,70.0,66.9,90,30.03,6.0,WSW,8.1,-,N/A,,Overcast,250,2013-08-22 06:53:00
3:53 AM,70.0,66.9,90,30.00,7.0,SW,5.8,-,N/A,,Clear,230,2013-08-22 07:53:00
4:53 AM,70.0,66.9,90,29.96,7.0,SSW,8.1,-,N/A,,Clear,210,2013-08-22 08:53:00
5:53 AM,69.1,66.9,93,29.99,7.0,NW,4.6,-,N/A,,Partly Cloudy,310,2013-08-22 09:53:00
6:53 AM,70.0,66.0,87,30.01,10.0,NW,6.9,-,N/A,,Mostly Cloudy,310,2013-08-22 10:53:00
7:53 AM,69.1,66.0,90,30.03,7.0,SSW,3.5,-,N/A,,Clear,210,2013-08-22 11:53:00
8:53 AM,72.0,66.0,81,30.05,10.0,West,3.5,-,N/A,,Clear,280,2013-08-22 12:53:00
9:53 AM,75.0,66.9,76,30.04,10.0,NW,4.6,-,N/A,,Clear,320,2013-08-22 13:53:00
10:53 AM,78.1,66.0,66,30.04,10.0,WNW,10.4,-,N/A,,Clear,300,2013-08-22 14:53:00
11:53 AM,80.1,66.9,64,30.04,10.0,NW,8.1,-,N/A,,Scattered Clouds,320,2013-08-22 15:53:00
12:53 PM,80.1,64.9,60,30.03,10.0,WNW,9.2,-,N/A,,Partly Cloudy,300,2013-08-22 16:53:00
1:53 PM,79.0,66.9,66,30.03,10.0,West,9.2,-,N/A,,Clear,280,2013-08-22 17:53:00
2:53 PM,79.0,68.0,69,30.03,10.0,West,11.5,-,N/A,,Mostly Cloudy,270,2013-08-22 18:53:00
3:53 PM,80.1,66.0,62,30.01,10.0,West,10.4,-,N/A,,Clear,280,2013-08-22 19:53:00
4:53 PM,78.1,66.0,66,30.01,10.0,WNW,10.4,-,N/A,,Partly Cloudy,300,2013-08-22 20:53:00
5:53 PM,75.0,66.0,73,30.02,10.0,WNW,6.9,-,0.00,Rain,Light Rain,290,2013-08-22 21:53:00
6:53 PM,73.9,69.1,85,30.01,9.0,West,8.1,-,0.00,,Partly Cloudy,270,2013-08-22 22:53:00
7:53 PM,73.0,66.9,81,30.00,10.0,NNW,3.5,-,N/A,,Clear,330,2013-08-22 23:53:00
8:53 PM,72.0,66.0,81,30.01,10.0,NW,4.6,-,N/A,,Scattered Clouds,310,2013-08-23 00:53:00
9:53 PM,72.0,64.0,76,30.01,10.0,North,6.9,-,N/A,,Clear,360,2013-08-23 01:53:00
10:53 PM,72.0,66.0,81,30.02,10.0,North,5.8,-,N/A,,Partly Cloudy,10,2013-08-23 02:53:00
11:53 PM,71.1,66.9,87,30.03,10.0,North,6.9,-,N/A,,Mostly Cloudy,350,2013-08-23 03:53:00